User: anonymous
Location: Delta State University
(33.7460°N, 90.7320°W)
Time: 18:32:15
(UTC-05:00)
Language:

Iridium 13 - Orbit

View from above orbital plane
View from above orbital plane
View from above satellite
View from above satellite

Ground track
Ground track

The orbit data is extracted from the following two-line orbital elements,

1 24840U 97030E   14244.44479108  .00000107  00000-0  31291-4 0  9100
2 24840 086.3932 056.4666 0001923 108.3477 309.2439 14.34218763900782
Epoch (UTC): 01 September 2014 10:40:29
Eccentricity: 0.0001923
inclination: 86.3932°
perigee height: 776 km
apogee height: 779 km
right ascension of ascending node: 56.4666°
argument of perigee: 108.3477°
revolutions per day: 14.34218763
mean anomaly at epoch: 309.2439°
orbit number at epoch: 90078

The dashed part of the orbit path shows where the satellite is in the earth's shadow,  

DLR